Location: Góry Miechowskie
(50.3599°N, 20.1803°E)
Time: 14:53:04
(UTC+00:00)

deb Explorer IX - Pass Details

Date: 18 September 2024
Orbit: 504 x 830 km, 38.7° (Epoch: 04 October)

Event Time Altitude Azimuth Distance (km) Brightness Sun altitude
Rises 18:30:37 0° 239° (WSW) 3,388 ? -17.0°
Reaches altitude 10° 18:33:31 10° 227° (SW) 2,473 ? -17.5°
Maximum altitude 18:38:17 26° 174° (S) 1,637 ? -18.2°
Enters shadow 18:39:33 24° 154° (SSE) 1,708 ? -18.3°
